Nashua, NH

10:08 AM EST on December 17, 2017 (GMT -0500)
Boire

Weather History for KASH - December, 2011

Change the Weather History Date:

Monday, December 19, 2011

  Actual Average Record
Temperature  
Mean Temperature 26 °F -  
Max Temperature 41 °F 34 °F 54 °F (1967)
Min Temperature 10 °F 14 °F -4 °F (1979)
Degree Days  
Heating Degree Days 40    
Moisture  
Dew Point 17 °F    
Average Humidity 63    
Maximum Humidity 84    
Minimum Humidity 47    
Precipitation  
Precipitation 0.00 in - - ()
Sea Level Pressure  
Sea Level Pressure 30.05 in    
Wind  
Wind Speed 2 mph (SSW)    
Max Wind Speed 14 mph    
Max Gust Speed 25 mph    
Visibility 9 miles    
Events      
Averages and records for this station are not official NWS values.
T = Trace of Precipitation, MM = Missing Value Source: NWS Daily Summary

Daily Weather History Graph

Daily Weather History Graph

Search for Another Location

Airport or City:

Trip Planner

Search our weather history database for the weather conditions in past years. The results will help you decide how hot, cold, wet, or windy it might be!

Date:

Astronomy

Dec. 19, 2011 Rise Set
Actual Time 7:12 AM EST 4:14 PM EST
Civil Twilight 6:39 AM EST 4:46 PM EST
Nautical Twilight 6:04 AM EST 5:22 PM EST
Astronomical Twilight 5:29 AM EST 5:56 PM EST
Moon 1:13 AM EST (12/19) 12:15 PM EST (12/19)
Length of Visible Light 10h 06m
Length of Day
9h 01m
Waning Crescent, 31% of the Moon is Illuminated
Dec 19
Waning Crescent
Dec 24
New
Jan 1
First Quarter
Jan 9
Full
Jan 16
Last Quarter

Hourly Weather History & Observations

Time (EST) Temp. Windchill Dew Point Humidity Pressure Visibility Wind Dir Wind Speed Gust Speed Precip Events Conditions
12:51 AM 11.1 °F - 6.1 °F 80% 30.28 in 10.0 mi Calm Calm - N/A   Clear
1:51 AM 10.0 °F - 6.1 °F 84% 30.28 in 10.0 mi Calm Calm - N/A   Clear
4:51 AM 11.1 °F - 7.2 °F 84% 30.26 in 10.0 mi Calm Calm - N/A   Clear
5:51 AM 12.0 °F - 7.2 °F 81% 30.25 in 10.0 mi Calm Calm - N/A   Clear
6:51 AM 12.0 °F - 7.2 °F 81% 30.22 in 5.0 mi Calm Calm - N/A   Haze
7:32 AM 14.0 °F - 6.8 °F 73% 30.18 in 2.5 mi Calm Calm - N/A   Haze
7:39 AM 14.0 °F - 8.6 °F 79% 30.19 in 7.0 mi Calm Calm - N/A   Clear
7:51 AM 16.2 °F - 8.1 °F 70% 30.20 in 10.0 mi Calm Calm - N/A   Clear
8:51 AM 19.0 °F 11.1 °F 7.2 °F 60% 30.17 in 10.0 mi SE 5.8 mph - N/A   Scattered Clouds
9:51 AM 27.1 °F 20.7 °F 10.0 °F 49% 30.15 in 10.0 mi Variable 5.8 mph - N/A   Clear
10:51 AM 32.0 °F 25.6 °F 15.1 °F 50% 30.08 in 10.0 mi Variable 6.9 mph - N/A   Scattered Clouds
11:51 AM 38.8 °F 30.8 °F 21.0 °F 49% 30.02 in 10.0 mi SSW 13.8 mph 25.3 mph N/A   Clear
12:51 PM 41.0 °F 33.5 °F 22.1 °F 47% 29.97 in 10.0 mi WSW 13.8 mph 23.0 mph N/A   Scattered Clouds
2:51 PM 41.9 °F 36.3 °F 24.1 °F 49% 29.89 in 10.0 mi SSW 9.2 mph 20.7 mph N/A   Partly Cloudy
3:51 PM 41.9 °F 39.0 °F 24.1 °F 49% 29.87 in 10.0 mi Variable 4.6 mph - N/A   Scattered Clouds
5:51 PM 41.9 °F 38.2 °F 25.2 °F 52% 29.88 in 10.0 mi Variable 5.8 mph - N/A   Mostly Cloudy
6:51 PM 41.9 °F - 25.2 °F 52% 29.89 in 10.0 mi Calm Calm - N/A   Overcast
7:51 PM 41.0 °F 38.0 °F 26.1 °F 55% 29.88 in 10.0 mi Variable 4.6 mph - N/A   Partly Cloudy
8:51 PM 38.8 °F 36.5 °F 26.1 °F 60% 29.86 in 10.0 mi Variable 3.5 mph - N/A   Clear
9:51 PM 39.9 °F 37.8 °F 26.1 °F 58% 29.84 in 10.0 mi Variable 3.5 mph - N/A   Mostly Cloudy
10:51 PM 39.9 °F - 27.1 °F 60% 29.85 in 10.0 mi Calm Calm - N/A   Overcast
11:51 PM 38.8 °F - 28.0 °F 65% 29.84 in 10.0 mi Calm Calm - N/A   Overcast